| time (UTC) | temp C | wind direction | speed KPH | gust KPH | rain 1hr cm | rain 24hr cm | rain mn cm | humidity % | barometer mb |
| 20260505051533 | 14 | 198 | 0.0 | 0.0 | 0.00 | 0.00 | 0.00 | 76 | 973.6 |
| 20260505041541 | 14 | 192 | 4.8 | 0.0 | 0.00 | 0.00 | 0.00 | 72 | 973.6 |
| 20260505040036 | 14 | 195 | 4.8 | 0.0 | 0.00 | 0.00 | 0.00 | 71 | 973.4 |
| 20260505034528 | 15 | 190 | 4.8 | 0.0 | 0.00 | 0.00 | 0.00 | 71 | 973.2 |
| 20260505033024 | 15 | 196 | 3.2 | 0.0 | 0.00 | 0.00 | 0.00 | 70 | 973.4 |
| 20260505031535 | 14 | 200 | 0.0 | 0.0 | 0.00 | 0.00 | 0.00 | 71 | 973.5 |
| 20260505030023 | 15 | 200 | 0.0 | 0.0 | 0.00 | 0.00 | 0.00 | 70 | 973.4 |
| 20260505024522 | 15 | 200 | 0.0 | 0.0 | 0.00 | 0.00 | 0.00 | 69 | 973.4 |
| 20260505023022 | 15 | 199 | 0.0 | 0.0 | 0.00 | 0.00 | 0.00 | 68 | 973.4 |
| 20260505021522 | 15 | 200 | 0.0 | 0.0 | 0.00 | 0.00 | 0.00 | 67 | 973.6 |
| 20260505020021 | 15 | 199 | 0.0 | 0.0 | 0.00 | 0.00 | 0.00 | 67 | 973.8 |
| 20260505014528 | 15 | 200 | 1.6 | 0.0 | 0.00 | 0.00 | 0.00 | 66 | 973.7 |
| 20260505013020 | 15 | 208 | 0.0 | 0.0 | 0.00 | 0.00 | 0.00 | 66 | 973.6 |
| 20260505011520 | 16 | 208 | 0.0 | 0.0 | 0.00 | 0.00 | 0.00 | 65 | 973.4 |
| 20260505010024 | 16 | 208 | 0.0 | 0.0 | 0.00 | 0.00 | 0.00 | 63 | 973.3 |
| 20260505004524 | 17 | 207 | 0.0 | 0.0 | 0.00 | 0.00 | 0.00 | 62 | 973.3 |
| 20260505003019 | 17 | 207 | 0.0 | 0.0 | 0.00 | 0.00 | 0.00 | 61 | 973.1 |
| 20260505001518 | 18 | 207 | 1.6 | 0.0 | 0.00 | 0.00 | 0.00 | 60 | 973.0 |
| 20260505000018 | 18 | 193 | 1.6 | 0.0 | 0.00 | 0.00 | 0.00 | 59 | 972.9 |
| 20260504234517 | 18 | 193 | 8.0 | 0.0 | 0.00 | 0.00 | 0.00 | 57 | 972.9 |
| 20260504233017 | 18 | 196 | 12.9 | 0.0 | 0.00 | 0.00 | 0.00 | 57 | 972.9 |
| 20260504231516 | 19 | 215 | 11.3 | 0.0 | 0.00 | 0.00 | 0.00 | 56 | 972.9 |
| 20260504230016 | 19 | 219 | 12.9 | 0.0 | 0.00 | 0.00 | 0.00 | 55 | 972.9 |
| 20260504224519 | 20 | 218 | 12.9 | 0.0 | 0.00 | 0.00 | 0.00 | 55 | 973.1 |
| 20260504223026 | 20 | 188 | 12.9 | 0.0 | 0.00 | 0.00 | 0.00 | 54 | 973.0 |
| 20260504221513 | 20 | 199 | 12.9 | 0.0 | 0.00 | 0.00 | 0.00 | 54 | 973.1 |
| 20260504220016 | 20 | 221 | 14.5 | 0.0 | 0.00 | 0.00 | 0.00 | 54 | 973.1 |
| 20260504214515 | 20 | 178 | 17.7 | 0.0 | 0.00 | 0.00 | 0.00 | 54 | 973.1 |
| 20260504213021 | 20 | 210 | 12.9 | 0.0 | 0.00 | 0.00 | 0.00 | 54 | 973.3 |
| 20260504211511 | 20 | 209 | 12.9 | 0.0 | 0.00 | 0.00 | 0.00 | 56 | 973.3 |
| 20260504210012 | 20 | 168 | 16.1 | 0.0 | 0.00 | 0.00 | 0.00 | 54 | 973.2 |
| 20260504204531 | 20 | 215 | 12.9 | 0.0 | 0.00 | 0.00 | 0.00 | 55 | 973.1 |
| 20260504203015 | 20 | 222 | 14.5 | 0.0 | 0.00 | 0.00 | 0.00 | 57 | 973.4 |
| 20260504201508 | 20 | 224 | 12.9 | 0.0 | 0.00 | 0.00 | 0.00 | 57 | 973.5 |
| 20260504200007 | 20 | 189 | 11.3 | 0.0 | 0.00 | 0.00 | 0.00 | 56 | 973.5 |
| 20260504194507 | 20 | 227 | 11.3 | 0.0 | 0.00 | 0.00 | 0.00 | 55 | 973.7 |
| 20260504193004 | 20 | 230 | 9.7 | 0.0 | 0.00 | 0.00 | 0.00 | 53 | 973.8 |
| 20260504191501 | 20 | 227 | 16.1 | 0.0 | 0.00 | 0.00 | 0.00 | 55 | 974.2 |
| 20260504190001 | 20 | 216 | 8.0 | 0.0 | 0.00 | 0.00 | 0.00 | 54 | 974.2 |
| 20260504184600 | 20 | 218 | 8.0 | 0.0 | 0.00 | 0.00 | 0.00 | 53 | 974.3 |
| 20260504183100 | 20 | 199 | 9.7 | 0.0 | 0.00 | 0.00 | 0.00 | 52 | 974.4 |
| 20260504181600 | 20 | 219 | 9.7 | 0.0 | 0.00 | 0.00 | 0.00 | 52 | 974.6 |
| 20260504180056 | 20 | 193 | 3.2 | 0.0 | 0.00 | 0.00 | 0.00 | 54 | 974.9 |
| 20260504174559 | 20 | 198 | 4.8 | 0.0 | 0.00 | 0.00 | 0.00 | 57 | 975.1 |
| 20260504173049 | 19 | 175 | 9.7 | 0.0 | 0.00 | 0.00 | 0.00 | 53 | 975.3 |
| 20260504171550 | 19 | 221 | 9.7 | 0.0 | 0.00 | 0.00 | 0.00 | 58 | 975.7 |
| 20260504081529 | 5 | 272 | 0.0 | 0.0 | 0.00 | 0.00 | 0.00 | 86 | 978.2 |